Regional Weather Roundup
Issued by NWS

Home | Current Version | Previous Version | Graphics & Text | Print | Product List | Glossary On
Versions: 1 2 3 4 5 6 7 8 9 10 11 12 13 14 15 16 17 18 19 20 21 22 23 24 25 26 27 28 29 30 31 32 33 34 35 36 37 38 39 40 41 42 43 44 45 46 47 48 49 50
000
ASUS43 KLMK 282210
RWRKY
KENTUCKY REGIONAL WEATHER ROUNDUP
NATIONAL WEATHER SERVICE LOUISVILLE KY
600 PM EDT THU MAY 28 2015

NOTE "FAIR" INDICATES FEW OR NO CLOUDS BELOW 12,000 FEET
WITH NO SIGNIFICANT WEATHER AND/OR OBSTRUCTIONS TO VISIBILITY.

KYZ001>023-026-027-061>063-070>075-282300-
WESTERN AND SOUTH CENTRAL KENTUCKY

CITY           SKY/WX    TMP DP  RH WIND       PRES   REMARKS
PADUCAH        MOSUNNY   83  63  50 VRB6      30.09F
HENDERSON      PTSUNNY   82  64  54 SE7       30.08F
OWENSBORO      SUNNY     84  66  54 S9        30.11F
HOPKINSVILLE   PTSUNNY   81  66  60 SE5       30.10F
BOWLING GREEN  MOSUNNY   82  64  54 E6        30.12F
GLASGOW        MOSUNNY   81  61  50 CALM      30.13F
$$

KYZ024-025-028>034-038-045-046-053-282300-
NORTH CENTRAL KENTUCKY

CITY           SKY/WX    TMP DP  RH WIND       PRES   REMARKS
LOUISVILLE/SDF LGT RAIN  77  68  73 SE13      30.14S
LOUISVILLE/LOU CLOUDY    77  65  66 SE10      30.15S
FORT KNOX      PTSUNNY   76  68  76 E8        30.13F
$$

KYZ035>037-039>044-047>052-055>060-089>105-282300-
NORTHEAST KENTUCKY

CITY           SKY/WX    TMP DP  RH WIND       PRES   REMARKS
LEXINGTON      PTSUNNY   76  64  66 S6        30.18F
COVINGTON      MOSUNNY   81  65  58 S7        30.16F
FRANKFORT      PTSUNNY   73  67  81 SW5       30.16F
$$

KYZ054-064>069-076>088-106>120-282300-
SOUTHEAST KENTUCKY

CITY           SKY/WX    TMP DP  RH WIND       PRES   REMARKS
JACKSON        CLOUDY    76  68  76 CALM      30.20F
LONDON         CLOUDY    75  64  68 NE5       30.19F
SOMERSET       CLOUDY    72  64  78 NE5       30.18F
MIDDLESBORO    CLOUDY    76  67  74 CALM      30.19S
MONTICELLO     MOCLDY    77  70  79 N12       30.19F
$$



USA.gov is the U.S. government's official web portal to all federal, state and local government web resources and services.